TimeEST,TemperatureF,Dew PointF,Humidity,Sea Level PressureIn,VisibilityMPH,Wind Direction,Wind SpeedMPH,Gust SpeedMPH,PrecipitationIn,Events,Conditions,WindDirDegrees,DateUTC
12:53 AM,48.9,44.1,83,30.13,10.0,West,9.2,-,N/A,,Clear,260,2013-12-31 05:53:00
1:53 AM,48.9,44.1,83,30.12,10.0,SW,4.6,-,N/A,,Clear,230,2013-12-31 06:53:00
2:53 AM,48.9,44.1,83,30.13,10.0,West,4.6,-,N/A,,Mostly Cloudy,260,2013-12-31 07:53:00
3:53 AM,48.0,44.1,86,30.12,10.0,WSW,3.5,-,N/A,,Mostly Cloudy,240,2013-12-31 08:53:00
4:53 AM,48.0,43.0,83,30.14,9.0,West,5.8,-,N/A,,Clear,270,2013-12-31 09:53:00
5:53 AM,48.9,43.0,80,30.18,9.0,West,10.4,-,N/A,,Clear,280,2013-12-31 10:53:00
6:53 AM,48.0,41.0,77,30.21,9.0,WNW,10.4,-,N/A,,Clear,290,2013-12-31 11:53:00
7:21 AM,48.2,41.0,76,30.22,9.0,WNW,8.1,-,N/A,,Overcast,300,2013-12-31 12:21:00
7:53 AM,48.0,41.0,77,30.23,8.0,NW,8.1,-,N/A,,Overcast,320,2013-12-31 12:53:00
8:53 AM,48.0,42.1,80,30.27,8.0,North,9.2,-,N/A,,Overcast,350,2013-12-31 13:53:00
9:08 AM,48.2,39.2,71,30.28,10.0,NNE,8.1,-,N/A,,Overcast,20,2013-12-31 14:08:00
9:17 AM,48.2,39.2,71,30.28,10.0,NE,6.9,-,N/A,,Mostly Cloudy,40,2013-12-31 14:17:00
9:24 AM,48.2,39.2,71,30.29,10.0,NE,8.1,-,N/A,,Scattered Clouds,40,2013-12-31 14:24:00
9:53 AM,48.9,37.9,66,30.30,10.0,NNE,3.5,-,N/A,,Overcast,20,2013-12-31 14:53:00
9:56 AM,48.2,37.4,66,30.31,10.0,NNE,3.5,-,N/A,,Clear,30,2013-12-31 14:56:00
10:53 AM,51.1,35.1,54,30.31,10.0,Calm,Calm,-,N/A,,Clear,0,2013-12-31 15:53:00
11:53 AM,55.0,35.1,47,30.29,10.0,NNE,6.9,-,N/A,,Clear,20,2013-12-31 16:53:00
12:53 PM,54.0,34.0,47,30.27,10.0,WNW,4.6,-,N/A,,Clear,290,2013-12-31 17:53:00
1:53 PM,55.0,34.0,45,30.27,10.0,Calm,Calm,-,N/A,,Clear,0,2013-12-31 18:53:00
2:53 PM,55.9,30.0,37,30.27,10.0,North,6.9,-,N/A,,Clear,350,2013-12-31 19:53:00
3:53 PM,55.9,30.0,37,30.27,10.0,NNW,6.9,-,N/A,,Clear,330,2013-12-31 20:53:00
4:53 PM,53.1,30.9,43,30.30,10.0,NNW,3.5,-,N/A,,Clear,330,2013-12-31 21:53:00
5:53 PM,46.9,35.1,63,30.30,10.0,Calm,Calm,-,N/A,,Clear,0,2013-12-31 22:53:00
6:53 PM,44.1,36.0,73,30.34,9.0,Calm,Calm,-,N/A,,Clear,0,2013-12-31 23:53:00
7:53 PM,43.0,35.1,74,30.36,8.0,Calm,Calm,-,N/A,,Clear,0,2014-01-01 00:53:00
8:53 PM,42.1,34.0,73,30.36,10.0,Calm,Calm,-,N/A,,Clear,0,2014-01-01 01:53:00
9:53 PM,41.0,35.1,79,30.37,10.0,Calm,Calm,-,N/A,,Clear,0,2014-01-01 02:53:00
10:53 PM,37.0,33.1,86,30.38,8.0,Calm,Calm,-,N/A,,Clear,0,2014-01-01 03:53:00
11:53 PM,36.0,33.1,89,30.38,5.0,Calm,Calm,-,N/A,,Clear,0,2014-01-01 04:53:00